Flag for Germany Weather past 2 weeks in Bad Kreuznach, Rhineland-Palatinate, Germany

Now
63 °F

Light rain. More clouds than sun.


Feels Like: 63 °F
Forecast: 52 / 67 °F
Wind: 13 mph from North

Location: Wiesbaden Airport

Current Time: Sep 1, 2015 at 2:20:15 PM

Latest Report: Sep 1, 2015 at 1:58 PM


Visibility: N/A

Pressure: 29.81 "Hg

Humidity: 94%

Dew point: 61 °F

Location of Bad KreuznachLocation

Historic Weather in Bad Kreuznach — Graph

°F

Bad Kreuznach temperature yesterday

Maximum temperature yesterday: 93 °F (at 3:58 PM)
Minimum temperature yesterday: 67 °F (at 5:58 AM)
Average temperature yesterday: 80 °F

Past Weeks' High & Low Weather Summary

 TemperatureHumidityPressure
High93 °F (Aug 31, 3:58 PM)100% (Aug 23, 8:58 PM)30.29 "Hg (Aug 23, 8:58 PM)
Low51 °F (Aug 19, 5:58 AM)24% (Aug 22, 4:58 PM)29.66 "Hg (Aug 23, 6:58 PM)
Average68 °F69%30.00 "Hg
* Reported Aug 17 12:58 PM — Sep 1 12:58 PM, Bad Kreuznach, Weather by CustomWeather, © 2015

Note: Actual official high and low records may vary slightly from our data, if they occured in-between our weather recording intervals... More about our weather records

Advertising

Bad Kreuznach weather history for previous 24 hours

 ConditionsComfort  
Time TempWeatherWind HumidityBarometerVisibility
12:58 PM
Tue, Sep 1
70 °FMostly cloudy.16 mph67%29.76 "HgN/A
11:58 AM75 °FBroken clouds.5 mph67%29.77 "HgN/A
10:58 AM75 °FPassing clouds.7 mph70%29.77 "HgN/A
9:58 AM73 °FPassing clouds.5 mph74%29.76 "HgN/A
8:58 AM73 °FPartly sunny.5 mph69%29.76 "HgN/A
7:58 AM71 °FBroken clouds.6 mph76%29.78 "HgN/A
6:58 AM70 °FThundershowers. Passing clouds.2 mph79%29.79 "HgN/A
4:58 AM70 °FOvercast.5 mph78%29.80 "HgN/A
3:58 AM70 °FPartly cloudy.8 mph78%29.81 "HgN/A
2:58 AM72 °FPassing clouds.5 mph73%29.81 "HgN/A
1:58 AM74 °FPassing clouds.8 mph69%29.82 "HgN/A
12:58 AM70 °FClear.3 mph69%29.81 "HgN/A
10:58 PM
Mon, Aug 31
76 °FPassing clouds.3 mph54%29.80 "HgN/A
9:58 PM79 °FPassing clouds.7 mph47%29.79 "HgN/A
8:58 PM82 °FSunny.6 mph43%29.80 "HgN/A
7:58 PM86 °FSunny.14 mph35%29.79 "HgN/A
6:58 PM90 °FSunny.15 mph29%29.79 "HgN/A
5:58 PM92 °FSunny.17 mph25%29.79 "HgN/A
4:58 PM93 °FSunny.14 mph26%29.80 "HgN/A
3:58 PM93 °FSunny.13 mph28%29.82 "HgN/A
2:58 PM91 °FSunny.13 mph28%29.85 "HgN/A
Weather by CustomWeather, © 2015

See weather overviewHow to use our weather pages